Overview Statistics Trail Chart Weather Telemetry Raw packets
 

This is the latest recevied weather packets stored in our database for station/object N7WSS. If no packets are shown the sender has not sent any weather packets the latest 10 day(s).

<< 39 40 41 42 43 44 45 >>
Time Temp. Humidity Pressure Rain* Wind** Luminosity Snow
1788363668 30° C 54% 1016.7 hPa 0 mm - - -
1788363366 28.89° C 53% 1016.9 hPa 0 mm - - -
1788363062 28.89° C 54% 1017.1 hPa 0 mm - - -
1788362758 29.44° C 54% 1016.6 hPa 0 mm - - -
1788362453 29.44° C 54% 1016.8 hPa 0 mm - - -
1788362149 29.44° C 54% 1016.7 hPa 0 mm - - -
1788361853 28.89° C 56% 1016.9 hPa 0 mm - - -
1788361544 28.89° C 56% 1016.5 hPa 0 mm - - -
1788361240 29.44° C 57% 1016.5 hPa 0 mm - - -
1788360934 28.33° C 59% 1016.5 hPa 0 mm - - -
1788360634 26.67° C 64% 1016.7 hPa 0 mm - - -
1788360331 25.56° C 68% 1016.7 hPa 0 mm - - -
1788360032 25.56° C 67% 1016.8 hPa 0 mm - - -
1788359731 25.56° C 66% 1016.8 hPa 0 mm - - -
1788359427 26.67° C 64% 1016.6 hPa 0 mm - - -
1788359123 26.11° C 64% 1016.6 hPa 0 mm - - -
1788358819 26.11° C 65% 1016.5 hPa 0 mm - - -
1788358518 25.56° C 66% 1016.6 hPa 0 mm - - -
1788358214 25° C 67% 1016.3 hPa 0 mm - - -
1788357914 25° C 68% 1016.5 hPa 0 mm - - -
1788357609 25° C 69% 1016.5 hPa 0 mm - - -
1788357303 24.44° C 69% 1016.3 hPa 0 mm - - -
1788357003 24.44° C 70% 1016.3 hPa 0 mm - - -
1788356699 24.44° C 72% 1016.2 hPa 0 mm - - -
1788356399 23.89° C 72% 1016.2 hPa 0 mm - - -

* Rain latest hour (hover to see other rain measurements)
** Current wind speed in m/s (hover to see current wind gust speed)